x

9441102 - Westport, Wa (wptw1) Weather Station

1:36 - Sun 28th May 2017 All times are PDT. -7 hours from GMT.

  • Wind
    6mph, 9mph gusts
  • Sea Temp 53°f
  • Aire Temp 52°f
  • Sea Pressure 1020mb
  • 9441102 - Westport, Wa
  • 9441102 - Westport, Wa

More Historic Weather Station data

Upgrade to MSW Pro to gain access to the past 30 days of data for over 8000 Wavebouys and Weather Stations around the globe.

Join Pro

Comparision Forecast

View Surf forecast
   
dom 05/28 1:36 6 9 mph 1020mb 53f 52f
1:30 6 9 mph 1019.9mb 54f 52f
1:24 7 8 mph 1019.9mb 54f 52f
1:18 7 8 mph 1020mb 55f 52f
1:12 3 7 mph 1019.9mb 55f 52f
1:06 6 7 mph 1019.8mb 55f 52f
1:00 7 8 mph 1019.7mb 55f 52f
12:36 7 10 mph 1019.7mb 55f 52f
12:30 6 7 mph 1019.5mb 55f 52f
12:24 5 7 mph 1019.5mb 55f 52f
12:18 7 8 mph 1019.5mb 55f 52f
12:12 6 7 mph 1019.5mb 55f 52f
12:06 7 8 mph 1019.5mb 55f 52f
12:00 7 10 mph 1019.6mb 55f 52f
sáb 05/27 11:36 5 7 mph 1019.6mb 55f 52f
11:30 5 6 mph 1019.7mb 55f 52f
11:24 5 7 mph 1019.7mb 55f 52f
11:18 3 8 mph 1019.6mb 54f 51f
11:12 3 6 mph 1019.5mb 54f 51f
11:06 3 6 mph 1019.4mb 54f 51f
11:00 5 6 mph 1019.4mb 54f 51f
10:36 8 10 mph 1019.4mb 54f 51f
10:30 8 10 mph 1019.3mb 54f 51f
10:24 6 9 mph 1019.3mb 54f 51f
10:18 7 9 mph 1019.3mb 54f 51f
10:12 7 9 mph 1019.2mb 54f 51f
10:06 6 9 mph 1019.2mb 54f 50f
10:00 8 9 mph 1019.1mb 54f 50f
9:36 7 9 mph 1019mb 55f 50f
9:30 7 10 mph 1019mb 55f 50f
9:24 8 10 mph 1019mb 55f 50f
9:18 8 13 mph 1019mb 55f 50f
9:12 7 11 mph 1018.9mb 54f 50f
9:06 9 11 mph 1018.9mb 54f 50f
9:00 10 11 mph 1018.9mb 54f 50f
8:36 9 13 mph 1018.9mb 54f 50f
8:30 10 13 mph 1018.8mb 54f 50f
8:24 11 14 mph 1018.9mb 54f 50f
8:18 8 13 mph 1018.9mb 54f 50f
8:12 9 13 mph 1018.9mb 54f 50f
8:06 11 13 mph 1018.9mb 54f 50f
8:00 9 11 mph 1018.9mb 54f 50f
7:36 10 13 mph 1018.7mb 54f 50f
7:30 9 11 mph - - 51f
7:24 9 14 mph 1018.7mb 54f 50f
7:18 11 14 mph 1018.7mb 54f 51f
7:12 10 14 mph 1018.7mb 54f 51f
7:06 10 13 mph 1018.8mb 54f 51f
7:00 9 13 mph 1018.8mb 54f 51f
6:36 9 14 mph 1018.9mb 54f 51f
6:30 10 14 mph 1019mb 54f 51f
6:24 10 13 mph 1018.9mb 54f 51f
6:18 11 15 mph 1019mb 54f 50f
6:12 13 14 mph 1019mb 54f 51f
6:06 11 14 mph 1019mb 54f 51f
6:00 10 13 mph 1019mb 54f 51f
5:36 11 13 mph 1019.1mb 54f 51f
5:30 10 11 mph 1019.1mb 54f 51f
5:24 9 14 mph 1019.1mb 53f 51f
5:18 11 13 mph 1019.1mb 52f 51f
5:12 11 14 mph 1019.1mb 52f 51f
5:06 10 14 mph 1019.2mb 52f 51f
5:00 11 14 mph 1019.2mb 52f 51f
4:36 11 13 mph 1019.3mb 52f 51f
4:30 10 13 mph 1019.3mb 52f 52f
4:24 11 14 mph 1019.3mb 52f 52f
4:18 11 14 mph 1019.4mb 52f 52f
4:12 11 14 mph 1019.3mb 52f 52f
4:06 9 13 mph 1019.4mb 52f 52f
4:00 10 11 mph 1019.4mb 52f 52f
3:36 11 14 mph 1019.4mb 52f 52f
3:30 11 14 mph 1019.5mb 52f 52f
3:24 13 15 mph 1019.4mb 52f 52f
3:18 14 15 mph 1019.4mb 52f 52f
3:12 11 15 mph 1019.4mb 52f 52f
3:06 11 14 mph 1019.4mb 52f 51f
3:00 11 15 mph 1019.6mb 52f 52f
2:36 13 15 mph 1019.7mb 52f 51f
2:30 13 15 mph 1019.7mb 52f 51f
2:24 16 17 mph 1019.7mb 52f 51f
2:18 13 14 mph 1019.7mb 52f 51f
2:12 11 14 mph 1019.7mb 53f 51f
2:06 11 14 mph 1019.7mb 53f 51f
2:00 10 13 mph 1019.7mb 53f 51f
1:36 10 10 mph 1019.7mb 54f 50f
1:30 10 13 mph 1019.7mb 54f 50f
1:24 9 11 mph 1019.7mb 55f 51f
1:18 8 11 mph 1019.7mb 55f 50f
1:12 9 11 mph 1019.7mb 55f 50f
1:06 9 10 mph 1019.6mb 56f 51f
1:00 8 11 mph 1019.6mb 55f 50f
12:36 9 11 mph 1019.7mb 55f 51f
12:30 9 10 mph 1019.8mb 55f 50f
12:24 9 10 mph 1019.8mb 55f 51f
12:18 8 9 mph 1019.8mb 55f 50f
12:12 8 9 mph 1019.8mb 55f 50f
12:06 7 9 mph 1019.8mb 55f 51f
12:00 7 9 mph 1019.8mb 55f 51f
11:36 8 10 mph 1019.8mb 55f 51f
11:30 8 9 mph 1019.8mb 55f 51f
11:24 8 10 mph 1019.8mb 55f 51f
11:18 8 9 mph 1019.7mb 55f 51f
11:12 7 9 mph 1019.7mb 55f 51f
11:06 7 9 mph 1019.7mb 54f 51f
11:00 7 8 mph 1019.7mb 54f 51f
10:36 6 7 mph 1019.7mb 55f 51f
10:30 7 8 mph 1019.7mb 55f 50f
10:24 6 8 mph 1019.6mb 56f 50f
10:18 6 8 mph 1019.6mb 56f 50f
10:12 5 7 mph 1019.6mb 56f 50f
10:06 5 6 mph 1019.6mb 56f 49f
10:00 6 7 mph 1019.5mb 56f 49f
9:36 5 6 mph 1019.4mb 55f 49f
9:30 5 6 mph 1019.3mb 56f 50f
9:24 6 7 mph 1019.3mb 56f 50f
9:18 6 7 mph 1019.4mb 56f 50f
9:12 6 7 mph 1019.4mb 56f 50f
9:06 6 8 mph 1019.4mb 55f 50f
9:00 7 8 mph 1019.2mb 55f 51f
8:36 2 5 mph 1019.1mb 55f 51f
8:30 3 5 mph 1018.9mb 55f 50f
8:24 3 5 mph 1018.8mb 55f 51f
8:18 3 5 mph 1018.8mb 55f 51f
8:12 3 5 mph 1018.7mb 55f 51f
8:06 2 3 mph 1018.7mb 55f 51f
8:00 3 5 mph 1018.7mb 55f 51f
7:36 2 5 mph 1018.5mb 54f 50f
7:30 1 3 mph 1018.5mb 54f 51f
7:24 1 3 mph 1018.4mb 54f 51f
7:18 3 6 mph 1018.4mb 54f 50f
7:12 5 6 mph 1018.3mb 54f 50f
7:06 3 5 mph 1018.2mb 54f 50f
7:00 2 2 mph 1018.2mb 54f 50f
6:36 2 3 mph 1018.1mb 54f 50f
6:30 2 3 mph 1018mb 54f 50f
6:24 1 2 mph 1017.9mb 54f 50f
6:18 2 3 mph 1017.9mb 54f 50f
6:12  -  1 mph 1017.9mb 53f 50f
6:06 1 2 mph 1017.8mb 53f 50f
6:00  -  2 mph 1017.8mb 53f 50f
5:36  -  2 mph 1017.6mb 53f 50f
5:30 1 3 mph 1017.6mb 53f 50f
5:24 2 5 mph 1017.6mb 53f 50f
5:18 3 5 mph 1017.6mb 53f 50f
5:12  -  1 mph 1017.6mb 53f 50f
5:06  -  1 mph 1017.6mb 53f 50f
5:00 2 3 mph 1017.6mb 53f 50f
4:36 1 2 mph 1017.5mb 53f 50f
4:30  -  1 mph 1017.5mb 53f 50f
4:24  -  2 mph 1017.5mb 53f 50f
4:18 3 5 mph 1017.5mb 53f 50f
4:12  -  3 mph 1017.5mb 53f 51f
4:06  -  1 mph 1017.5mb 53f 50f
4:00  -  1 mph 1017.4mb 52f 50f
3:36 2 2 mph 1017.5mb 53f 51f
3:30 1 3 mph 1017.5mb 53f 51f
3:24 3 6 mph 1017.5mb 53f 51f
3:18 5 7 mph 1017.4mb 53f 51f
3:12 6 8 mph 1017.4mb 52f 51f
3:06 6 9 mph 1017.4mb 52f 51f
3:00 8 10 mph 1017.4mb 52f 51f
2:54 7 9 mph 1017.3mb 52f 51f
2:48 9 11 mph 1017.3mb 52f 51f
2:36 9 11 mph 1017.3mb 52f 52f
2:30 10 11 mph 1017.3mb 52f 52f
2:24 9 11 mph 1017.3mb 52f 52f
2:18 10 14 mph 1017.3mb 52f 52f
2:12 11 14 mph 1017.3mb 52f 52f
2:06 14 15 mph 1017.2mb 52f 52f
2:00 15 16 mph 1017.2mb 52f 52f
1:54 14 15 mph 1017.2mb 52f 52f
1:48 13 15 mph 1017.2mb 52f 52f
1:36 14 16 mph 1017.1mb 52f 52f
1:30 13 15 mph 1017.2mb 52f 52f
1:24 13 14 mph 1017.2mb 52f 52f
1:18 11 13 mph 1017.2mb 52f 52f
1:12 13 14 mph 1017.1mb 53f 52f
1:06 14 15 mph 1017.1mb 53f 52f
1:00 11 15 mph 1017.1mb 53f 52f
12:54 8 11 mph 1017.1mb 53f 52f
12:48 9 11 mph 1017.1mb 53f 52f
12:36 8 9 mph 1017mb 53f 52f
12:30 6 9 mph 1017mb 54f 52f
12:24 7 9 mph 1017mb 55f 52f
12:18 6 8 mph 1017mb 55f 52f
12:12 6 9 mph 1016.9mb 55f 52f
12:06 6 7 mph 1016.9mb 55f 52f
12:00 6 7 mph 1017mb 55f 52f
vie 05/26 11:54 6 8 mph 1016.9mb 55f 52f
11:48 7 9 mph 1016.9mb 55f 52f
11:36 6 7 mph 1016.9mb 55f 52f
11:30 6 9 mph 1016.9mb 55f 52f
11:24 7 8 mph 1016.8mb 55f 52f
11:18 6 8 mph 1016.9mb 55f 52f
11:12 7 8 mph 1016.8mb 55f 52f
11:06 7 9 mph 1016.8mb 55f 52f
11:00 7 9 mph 1016.8mb 55f 52f
10:54 7 8 mph 1016.9mb 55f 52f
10:48 7 9 mph 1016.9mb 55f 52f
10:36 9 11 mph 1016.7mb 55f 53f
10:30 9 10 mph 1016.7mb 55f 53f
10:24 7 9 mph 1016.7mb 55f 53f
10:18 8 10 mph 1016.7mb 55f 53f
10:12 7 9 mph 1016.7mb 55f 53f
10:06 8 10 mph 1016.7mb 55f 53f
10:00 8 10 mph 1016.7mb 55f 53f
9:54 8 10 mph 1016.7mb 54f 53f
9:36 9 11 mph 1016.5mb 54f 53f
9:30 8 10 mph 1016.5mb 55f 53f
9:24 8 11 mph 1016.5mb 55f 53f
9:18 8 10 mph 1016.4mb 55f 53f
9:12 8 10 mph 1016.4mb 54f 53f
9:06 8 9 mph 1016.3mb 55f 53f
9:00 8 10 mph 1016.2mb 55f 53f
8:54 8 10 mph 1016.2mb 55f 53f
8:36 10 13 mph 1016.2mb 55f 53f
8:30 11 13 mph 1016.2mb 55f 53f
8:24 10 13 mph 1016.2mb 55f 52f
8:18 14 15 mph 1016.2mb 55f 52f
8:12 13 15 mph 1016.2mb 55f 52f
8:06 13 16 mph 1016.2mb 55f 52f
8:00 11 15 mph 1016.2mb 54f 52f
7:54 13 16 mph 1016.1mb 54f 52f
7:48 14 17 mph 1016.2mb 54f 52f
7:36 11 15 mph 1016.2mb 54f 52f
7:30 14 17 mph 1016.1mb 54f 52f
7:24 14 15 mph 1016.1mb 54f 52f
7:18 13 14 mph 1016mb 54f 52f
7:12 11 15 mph 1016mb 54f 52f
7:06 14 17 mph 1016.1mb 54f 52f
7:00 15 17 mph 1016mb 54f 52f
6:54 15 17 mph 1016mb 54f 52f
6:48 15 18 mph 1016mb 54f 52f
6:36 16 18 mph 1016.1mb 54f 51f
6:30 15 17 mph 1016mb 54f 52f
6:24 14 16 mph 1016mb 54f 52f
6:18 14 15 mph 1016mb 54f 52f
6:12 13 17 mph 1016.1mb 54f 52f
6:06 16 17 mph 1016.1mb 55f 52f
6:00 15 17 mph 1016.1mb 55f 52f
5:54 15 17 mph 1016.2mb 55f 52f
5:48 14 16 mph 1016.1mb 55f 52f
5:36 13 16 mph 1016.1mb 55f 53f
5:30 14 15 mph 1016mb 55f 53f
5:24 13 15 mph 1016.1mb 54f 53f
5:18 15 16 mph 1016.1mb 54f 53f
5:12 14 16 mph 1016mb 54f 54f
5:06 11 14 mph 1016mb 54f 54f
5:00 13 14 mph 1016.1mb 54f 54f
4:54 13 14 mph 1016.1mb 54f 54f
4:48 13 15 mph 1016.1mb 54f 53f
4:36 13 15 mph 1016mb 54f 54f
4:30 10 13 mph 1016mb 53f 54f
4:24 13 15 mph 1016mb 53f 53f
4:18 13 14 mph 1016mb 52f 53f
4:12 11 14 mph 1016mb 52f 54f
4:06 11 13 mph 1015.9mb 52f 54f
4:00 11 14 mph 1015.9mb 52f 54f
3:54 14 15 mph 1015.9mb 52f 53f
3:48 11 14 mph 1015.9mb 52f 54f
3:36 9 13 mph 1015.9mb 52f 54f
3:30 10 11 mph 1016mb 52f 54f
3:24 8 9 mph 1016mb 52f 55f
3:18 7 11 mph 1016mb 52f 54f
3:12 10 14 mph 1016mb 52f 54f
3:06 11 14 mph 1016mb 52f 54f
3:00 13 14 mph 1016mb 52f 53f
2:54 14 14 mph 1015.9mb 52f 53f
2:48 11 14 mph 1015.9mb 52f 53f
2:36 14 15 mph 1015.8mb 52f 53f
2:30 14 16 mph 1015.7mb 52f 53f
2:24 16 20 mph 1015.7mb 52f 53f
2:18 18 21 mph 1015.6mb 52f 53f
2:12 21 22 mph 1015.6mb 52f 53f
2:06 20 22 mph 1015.6mb 52f 53f
2:00 20 21 mph 1015.7mb 52f 53f
1:54 17 18 mph 1015.7mb 52f 53f
1:48 16 18 mph 1015.6mb 52f 53f
1:36 16 17 mph 1015.6mb 52f 53f
1:30 15 16 mph 1015.6mb 52f 53f
1:24 15 16 mph 1015.6mb 52f 53f
1:18 15 16 mph 1015.6mb 52f 53f
1:12 15 16 mph 1015.6mb 52f 53f
1:06 14 15 mph 1015.5mb 52f 53f
1:00 15 15 mph 1015.5mb 53f 53f
12:54 14 15 mph 1015.5mb 53f 54f
12:48 14 15 mph 1015.5mb 53f 54f
12:36 16 16 mph 1015.5mb 53f 54f
12:30 16 16 mph 1015.5mb 53f 54f
12:24 16 16 mph 1015.5mb 54f 54f
12:18 15 16 mph 1015.5mb 55f 54f
12:12 14 15 mph 1015.4mb 55f 54f
12:06 14 14 mph 1015.4mb 54f 54f
12:00 13 14 mph 1015.4mb 54f 54f
11:54 13 15 mph 1015.3mb 54f 54f
11:48 14 14 mph 1015.3mb 54f 54f
11:36 14 15 mph 1015.2mb 54f 55f
11:30 14 14 mph 1015.2mb 54f 55f
11:24 14 15 mph 1015.2mb 54f 56f
11:18 13 14 mph 1015.1mb 54f 57f
11:12 11 13 mph 1015.1mb 54f 57f
11:06 13 13 mph 1015mb 54f 57f
11:00 13 13 mph 1015mb 54f 57f
10:54 13 14 mph 1015mb 54f 57f
10:48 10 11 mph 1015mb 54f 57f
10:36 9 10 mph 1015mb 54f 56f
10:30 10 10 mph 1015mb 54f 55f
10:24 7 8 mph 1014.9mb 54f 56f
10:18 7 7 mph 1015mb 54f 55f
10:12 7 7 mph 1015mb 53f 56f
10:06 7 8 mph 1015mb 53f 56f
10:00 6 7 mph 1015mb 54f 57f
9:54 6 6 mph 1015mb 54f 59f
9:48 5 6 mph 1014.9mb 54f 59f
9:36 5 6 mph 1014.9mb 55f 58f
9:30 3 6 mph 1014.8mb 55f 57f
9:24 3 6 mph 1014.8mb 55f 56f
9:18 5 7 mph 1014.7mb 55f 56f
9:12 5 8 mph 1014.7mb 55f 56f
9:06 5 8 mph 1014.7mb 55f 55f
9:00 6 7 mph 1014.6mb 55f 54f
8:54 6 7 mph 1014.6mb 55f 53f
8:48 5 7 mph 1014.6mb 55f 53f
8:36 6 7 mph 1014.7mb 54f 51f
8:30 6 8 mph 1014.6mb 54f 51f
8:24 6 8 mph 1014.6mb 54f 51f
8:18 7 9 mph 1014.6mb 54f 50f
8:12 9 10 mph 1014.6mb 54f 50f
8:06 9 9 mph 1014.6mb 54f 50f
8:00 9 9 mph 1014.5mb 54f 49f
7:54 8 9 mph 1014.6mb 54f 49f
7:48 8 9 mph 1014.5mb 54f 49f
7:36 6 8 mph 1014.5mb 54f 49f
7:30 6 8 mph 1014.5mb 54f 49f
7:24 8 9 mph 1014.4mb 54f 49f
7:18 7 8 mph 1014.4mb 54f 49f
7:12 6 6 mph 1014.3mb 54f 48f
7:06 6 6 mph 1014.2mb 54f 48f
7:00 5 6 mph 1014.2mb 54f 48f
6:54 6 6 mph 1014.1mb 54f 48f
6:48 5 6 mph 1014.1mb 54f 48f
6:36 6 6 mph 1014mb 54f 48f
6:30 6 7 mph 1014mb 54f 49f
6:24 6 7 mph 1014mb 53f 49f
6:18 7 8 mph 1014mb 53f 49f
6:12 6 8 mph 1013.9mb 53f 49f
6:06 8 9 mph 1013.9mb 53f 49f
6:00 8 8 mph 1013.8mb 53f 49f
5:54 6 6 mph 1013.7mb 53f 49f
5:48 5 6 mph 1013.6mb 53f 49f
5:36 5 6 mph 1013.6mb 53f 49f
5:30 6 6 mph 1013.5mb 53f 49f
5:24 5 6 mph 1013.5mb 53f 49f
5:18 6 6 mph 1013.5mb 53f 49f
5:12 6 8 mph 1013.5mb 53f 49f
5:06 7 8 mph 1013.5mb 53f 49f
5:00 8 8 mph 1013.5mb 53f 49f
4:54 7 8 mph 1013.4mb 53f 49f
4:48 7 9 mph 1013.4mb 53f 50f
4:36 6 7 mph 1013.4mb 53f 50f
4:30 5 6 mph 1013.4mb 53f 50f
4:24 5 6 mph 1013.4mb 53f 50f
4:18 5 6 mph 1013.4mb 53f 50f
4:12 6 6 mph 1013.4mb 52f 50f
4:06 5 6 mph 1013.4mb 52f 50f
4:00 5 6 mph 1013.4mb 52f 50f
3:54 6 6 mph 1013.4mb 52f 50f
3:48 5 6 mph 1013.4mb 52f 50f
3:36 5 6 mph 1013.4mb 52f 50f
3:30 5 5 mph 1013.3mb 52f 50f
3:24 5 6 mph 1013.3mb 52f 50f
3:18 5 6 mph 1013.3mb 52f 50f
3:12 6 6 mph 1013.3mb 52f 50f
3:06 6 7 mph 1013.3mb 52f 50f
3:00 6 7 mph 1013.4mb 52f 50f
2:54 6 7 mph 1013.4mb 52f 50f
2:48 6 6 mph 1013.4mb 52f 50f
2:36 6 7 mph 1013.4mb 52f 50f
2:30 6 6 mph 1013.4mb 52f 50f
2:24 5 6 mph 1013.4mb 52f 50f
2:18 6 6 mph 1013.3mb 52f 50f
2:12 6 6 mph 1013.3mb 52f 51f
2:06 6 6 mph 1013.2mb 52f 51f
2:00 5 5 mph 1013.2mb 52f 51f
1:54 5 6 mph 1013.1mb 52f 51f
1:48 5 5 mph 1013.1mb 52f 51f
1:36 5 6 mph 1013.1mb 52f 51f
1:30 6 6 mph 1013.1mb 52f 51f
1:24 6 6 mph 1013.2mb 52f 51f
1:18 6 6 mph 1013.1mb 52f 51f
1:12 6 6 mph 1013.2mb 52f 51f
1:06 6 6 mph 1013.2mb 52f 51f
1:00 5 6 mph 1013.2mb 52f 51f
12:54 6 7 mph 1013.2mb 52f 51f
12:48 7 7 mph 1013.2mb 52f 51f
12:36 7 8 mph 1013.2mb 52f 51f
12:30 8 8 mph 1013.2mb 52f 51f
12:24 8 9 mph 1013.1mb 52f 51f
12:18 7 8 mph 1013mb 52f 51f
12:12 7 8 mph 1013mb 52f 51f
12:06 7 8 mph 1013mb 52f 51f
12:00 6 7 mph 1012.9mb 52f 51f
jue 05/25 11:54 5 6 mph 1012.9mb 53f 51f
11:48 5 6 mph 1012.8mb 53f 51f
11:36 5 6 mph 1012.7mb 53f 51f
11:30 5 6 mph 1012.8mb 53f 51f
11:24 6 6 mph 1012.9mb 53f 51f
11:18 5 6 mph 1012.8mb 54f 51f
11:12 6 6 mph 1012.8mb 54f 51f
11:06 6 6 mph 1012.9mb 54f 51f
11:00 6 7 mph 1012.9mb 54f 51f
10:54 5 7 mph 1012.9mb 54f 51f
10:48 6 7 mph 1012.9mb 54f 51f
10:36 7 8 mph 1012.8mb 55f 51f
10:30 6 8 mph 1012.7mb 55f 51f
10:24 7 8 mph 1012.8mb 55f 51f
10:18 8 9 mph 1012.7mb 55f 51f
10:12 7 8 mph 1012.8mb 55f 51f
10:06 7 9 mph 1012.8mb 55f 51f
10:00 8 10 mph 1012.8mb 54f 51f
9:54 8 10 mph 1012.7mb 54f 51f
9:48 8 9 mph 1012.6mb 54f 52f
9:36 10 11 mph 1012.5mb 55f 52f
9:30 10 11 mph 1012.4mb 55f 52f
9:24 9 10 mph 1012.4mb 54f 52f
9:18 9 10 mph 1012.3mb 54f 52f
9:12 10 13 mph 1012.2mb 54f 52f
9:06 9 14 mph 1012.2mb 54f 52f
9:00 11 14 mph 1012.1mb 54f 52f
8:54 10 14 mph 1012mb 54f 52f
8:48 11 13 mph 1012mb 54f 52f
8:36 14 15 mph 1011.8mb 54f 52f
8:30 13 15 mph 1011.9mb 54f 52f
8:24 14 15 mph 1011.8mb 54f 52f
8:18 11 14 mph 1011.7mb 54f 53f
8:12 11 13 mph 1011.7mb 54f 53f
8:06 10 13 mph 1011.8mb 54f 53f
8:00 10 13 mph 1011.7mb 54f 53f
7:54 11 14 mph 1011.7mb 54f 53f
7:48 14 15 mph 1011.7mb 54f 53f
7:36 13 15 mph - 54f 53f
7:30 13 15 mph - 54f 53f
7:24 13 14 mph - 54f 53f
7:18 14 16 mph - 54f 53f
7:12 14 15 mph - 54f 53f
7:06 13 15 mph - 54f 53f
7:00 14 15 mph - 54f 53f
6:54 14 16 mph - 54f 53f
6:48 13 16 mph - 54f 53f
6:36 14 16 mph 1011.7mb 54f 53f
6:30 13 16 mph 1011.7mb 54f 53f
6:24 14 16 mph 1011.7mb 53f 53f
6:18 13 17 mph 1011.8mb 53f 54f
6:12 14 17 mph 1011.8mb 53f 53f
6:06 15 17 mph 1011.7mb 53f 53f
6:00 15 16 mph 1011.8mb 53f 53f
5:54 14 16 mph 1011.8mb 53f 53f
5:48 13 15 mph 1011.7mb 53f 53f
5:36 14 16 mph 1011.7mb 54f 53f
5:30 14 16 mph 1011.7mb 55f 53f
5:24 15 17 mph 1011.7mb 54f 53f
5:18 15 16 mph 1011.7mb 54f 53f
5:12 15 16 mph 1011.7mb 54f 54f
5:06 14 16 mph 1011.7mb 54f 54f
5:00 14 15 mph 1011.8mb 54f 54f
4:54 13 15 mph 1011.9mb 54f 54f
4:48 11 15 mph 1011.8mb 53f 54f
4:36 13 14 mph 1012mb 53f 53f
4:30 14 15 mph 1012mb 54f 53f
4:24 13 15 mph 1012mb 54f 53f
4:18 14 16 mph 1012.1mb 54f 53f
4:12 14 15 mph 1012.2mb 54f 53f
4:06 13 15 mph 1012.2mb 53f 54f
4:00 14 15 mph 1012.2mb 53f 54f
3:54 13 14 mph 1012.4mb 54f 54f
3:48 11 14 mph 1012.3mb 54f 54f
3:36 11 13 mph 1012.5mb 52f 54f
3:30 11 13 mph 1012.6mb 51f 54f
3:24 10 11 mph 1012.7mb 51f 54f
3:18 9 10 mph 1012.7mb 51f 54f
3:12 10 11 mph 1012.7mb 51f 54f
3:06 10 11 mph 1012.7mb 51f 54f
3:00 10 11 mph 1012.7mb 51f 54f
2:54 9 10 mph 1012.8mb 51f 54f
2:48 10 11 mph 1012.8mb 51f 54f
2:36 10 11 mph 1012.8mb 51f 54f
2:30 10 11 mph 1012.8mb 51f 54f
2:24 9 11 mph 1012.9mb 51f 53f
2:18 8 10 mph 1012.9mb 51f 53f
2:12 10 11 mph 1013mb 51f 53f
2:06 8 10 mph 1013mb 51f 54f
2:00 7 8 mph 1013mb 51f 53f
1:54 7 8 mph 1013mb 51f 53f
1:48 6 9 mph 1013.1mb 51f 53f
1:36 5 7 mph 1013.1mb 51f 53f
1:30 7 8 mph 1013.1mb 51f 53f
1:24 7 8 mph 1013.1mb 51f 51f
1:18 6 7 mph 1013.2mb 51f 53f
1:12 6 8 mph 1013.2mb 51f 53f
1:06 7 8 mph 1013.2mb 51f 54f
1:00 5 7 mph 1013.2mb 51f 55f
12:54 6 8 mph 1013.2mb 51f 53f
12:48 5 7 mph 1013.3mb 51f 52f
12:36 6 8 mph 1013.3mb 51f 52f
12:30 7 8 mph 1013.2mb 51f 53f
12:24 7 7 mph 1013.3mb 51f 53f
12:18 6 7 mph 1013.3mb 51f 54f
12:12 6 7 mph 1013.4mb 52f 54f
12:06 5 6 mph 1013.4mb 52f 54f
12:00 5 6 mph 1013.4mb 52f 53f
11:54 5 6 mph 1013.4mb 52f 52f
11:48 6 7 mph 1013.4mb 52f 51f
11:36 3 6 mph 1013.4mb 53f 52f
11:30 5 6 mph 1013.4mb 53f 51f
11:24 5 6 mph 1013.5mb 53f 53f
11:18 2 5 mph 1013.4mb 53f 55f
11:12 3 5 mph 1013.4mb 53f 54f
11:06 5 5 mph 1013.4mb 53f 53f
11:00 3 6 mph 1013.4mb 53f 53f
10:54 5 6 mph 1013.4mb 53f 53f
10:48 6 7 mph 1013.4mb 53f 53f
10:36 5 6 mph 1013.4mb 53f 53f
10:30 5 5 mph 1013.4mb 53f 53f
10:24 5 6 mph 1013.5mb 53f 53f
10:18 5 6 mph 1013.4mb 53f 53f
10:12 5 6 mph 1013.4mb 53f 53f
10:06 3 5 mph 1013.5mb 53f 53f
10:00 5 6 mph 1013.5mb 53f 53f
9:54 2 3 mph 1013.5mb 53f 53f
9:48 3 5 mph 1013.6mb 53f 53f
9:36 3 5 mph 1013.6mb 53f 52f
9:30 5 6 mph 1013.6mb 53f 52f
9:24 3 5 mph 1013.6mb 53f 52f
9:18 2 3 mph 1013.5mb 53f 51f
9:12 5 7 mph 1013.6mb 53f 51f
9:06 3 5 mph 1013.6mb 53f 52f
9:00 3 5 mph 1013.6mb 53f 52f
8:54 2 6 mph 1013.6mb 53f 51f
8:48 5 7 mph 1013.6mb 53f 51f
8:36 3 10 mph 1013.6mb 53f 51f
8:30 7 9 mph 1013.6mb 54f 51f
8:24 6 7 mph 1013.7mb 54f 51f
8:18 6 7 mph 1013.7mb 54f 51f
8:12 6 8 mph 1013.6mb 53f 51f
8:06 6 7 mph 1013.6mb 53f 51f
8:00 3 6 mph 1013.5mb 53f 51f
7:54 6 7 mph 1013.5mb 53f 51f
7:48 5 7 mph 1013.4mb 53f 51f
7:36 5 6 mph 1013.4mb 54f 51f
7:30 5 7 mph 1013.4mb 53f 51f
7:24 5 6 mph 1013.4mb 53f 51f
7:18 6 7 mph 1013.3mb 53f 50f
7:12 3 5 mph 1013.4mb 53f 50f
7:06 2 3 mph 1013.4mb 53f 50f
7:00 1 3 mph 1013.4mb 53f 50f
6:54 3 5 mph 1013.4mb 53f 50f
6:48 3 3 mph 1013.4mb 53f 49f
6:36 2 3 mph 1013.3mb 53f 50f
6:30 3 3 mph 1013.3mb 53f 50f
6:24 2 3 mph 1013.3mb 53f 50f
6:18 3 3 mph 1013.4mb 53f 50f
6:12 5 5 mph 1013.4mb 53f 50f
6:06 3 5 mph 1013.4mb 53f 50f
6:00 3 5 mph 1013.5mb 53f 50f
5:54 2 5 mph 1013.4mb 53f 50f
5:48 3 6 mph 1013.4mb 53f 50f
5:36 2 5 mph 1013.3mb 53f 49f
5:30 3 5 mph 1013.2mb 53f 49f
5:24 3 3 mph 1013.2mb 53f 49f
5:18 2 3 mph 1013.2mb 53f 49f
5:12 2 3 mph 1013.2mb 53f 49f
5:06 2 3 mph 1013.3mb 53f 49f
5:00 2 3 mph 1013.3mb 53f 49f
4:54 2 2 mph 1013.3mb 53f 49f
4:48 2 2 mph 1013.3mb 53f 49f
4:36 1 1 mph 1013.4mb 53f 49f
4:30 1 1 mph 1013.4mb 53f 49f
4:24 1 2 mph 1013.4mb 53f 49f
4:18 1 1 mph 1013.5mb 52f 49f
4:12 1 2 mph 1013.5mb 52f 49f
4:06 2 2 mph 1013.5mb 52f 49f
4:00 1 1 mph 1013.4mb 52f 49f
3:54 1 1 mph 1013.5mb 52f 49f
3:48  -  1 mph 1013.5mb 52f 49f
3:36 1 2 mph 1013.6mb 52f 49f
3:30 1 2 mph 1013.6mb 52f 49f
3:24  -  1 mph 1013.6mb 52f 49f
3:18 1 2 mph 1013.6mb 52f 49f
3:12 1 2 mph 1013.7mb 52f 49f
3:06 2 2 mph 1013.6mb 51f 49f
3:00 2 3 mph 1013.6mb 51f 49f
2:54 3 3 mph 1013.7mb 52f 49f
2:48 2 3 mph 1013.8mb 52f 49f
2:36 2 3 mph 1013.8mb 52f 49f
2:30 2 3 mph 1013.8mb 52f 49f
2:24 2 3 mph 1013.9mb 51f 49f
2:18 3 3 mph 1013.9mb 51f 49f
2:12 3 3 mph 1013.9mb 51f 50f
2:06 3 5 mph 1013.9mb 51f 50f
2:00 5 6 mph 1013.9mb 50f 50f
1:54 5 5 mph 1013.9mb 50f 50f
1:48 5 6 mph 1013.9mb 50f 49f
1:36 5 5 mph 1014mb 50f 49f
1:30 5 6 mph 1014mb 50f 49f
1:24 5 5 mph 1014mb 50f 49f
1:18 3 5 mph 1014mb 50f 49f
1:12 3 5 mph 1014.1mb 50f 49f
1:06 3 5 mph 1014.1mb 50f 49f
1:00 3 3 mph 1014.2mb 50f 50f
12:54 2 3 mph 1014.2mb 50f 50f
12:48 2 2 mph 1014.3mb 50f 49f
12:36 3 3 mph 1014.3mb 50f 49f
12:30 2 2 mph 1014.3mb 50f 49f
12:24 2 2 mph 1014.3mb 50f 49f
12:18 2 2 mph 1014.4mb 50f 49f
12:12 1 2 mph 1014.4mb 50f 49f
12:06 1 2 mph 1014.5mb 50f 49f
12:00 2 2 mph 1014.5mb 50f 49f
mié 05/24 11:54 2 3 mph 1014.6mb 50f 49f
11:48 2 3 mph 1014.6mb 50f 49f
11:36 3 5 mph 1014.7mb 51f 50f
11:30 3 5 mph 1014.8mb 51f 50f
11:24 3 5 mph 1014.8mb 51f 50f
11:18 3 3 mph 1014.9mb 51f 50f
11:12 3 5 mph 1015mb 51f 50f
11:06 5 6 mph 1015mb 51f 50f
11:00 5 6 mph 1014.9mb 51f 50f
10:54 5 6 mph 1014.9mb 51f 50f
10:48 6 6 mph 1014.9mb 51f 50f
10:36 6 6 mph 1015.1mb 52f 50f
10:30 6 6 mph 1015mb 52f 50f
10:24 6 6 mph 1015.1mb 52f 50f
10:18 6 6 mph 1015.1mb 52f 50f
10:12 6 7 mph 1015.1mb 53f 50f
10:06 7 8 mph 1015.1mb 53f 50f
10:00 7 8 mph 1015.1mb 53f 50f
9:54 7 9 mph 1015.1mb 53f 50f
9:48 8 9 mph 1015.1mb 54f 50f
9:36 9 10 mph 1015mb 53f 50f
9:30 9 13 mph 1015mb 53f 50f
9:24 10 13 mph 1015mb 53f 50f
9:18 10 11 mph 1015mb 54f 51f
9:12 10 13 mph 1015mb 54f 51f
9:06 10 13 mph 1015mb 54f 51f
9:00 11 13 mph 1015mb 54f 51f
8:54 10 13 mph 1015.1mb 54f 51f
8:48 11 14 mph 1015.1mb 55f 51f
8:36 11 15 mph 1015.1mb 55f 51f
8:30 14 15 mph 1015.1mb 55f 51f
8:24 14 16 mph 1015.1mb 55f 51f
8:18 14 17 mph 1015.1mb 55f 51f
8:12 14 16 mph 1015.1mb 55f 52f
8:06 15 17 mph 1015.1mb 55f 52f
8:00 15 16 mph 1015.1mb 55f 52f
7:54 15 18 mph 1015.2mb 55f 52f
7:36 15 18 mph 1015.2mb 55f 52f
7:30 16 20 mph 1015.2mb 55f 52f
7:24 15 18 mph 1015.2mb 55f 53f
7:18 17 20 mph 1015.2mb 55f 52f
7:12 16 20 mph 1015.2mb 55f 52f
7:06 17 18 mph 1015.1mb 55f 52f
7:00 17 21 mph 1015mb 55f 52f
6:54 17 20 mph 1015.1mb 55f 52f
6:48 16 20 mph 1015.1mb 55f 53f
6:36 16 21 mph 1015.3mb 55f 53f
6:30 18 21 mph 1015.2mb 55f 53f
6:24 18 21 mph 1015.3mb 55f 53f
6:18 18 23 mph 1015.3mb 54f 53f
6:12 20 22 mph 1015.4mb 54f 53f
6:06 20 24 mph 1015.4mb 54f 53f
6:00 18 22 mph 1015.4mb 54f 53f
5:54 20 22 mph 1015.4mb 54f 53f
5:48 20 22 mph 1015.5mb 54f 53f
5:36 20 21 mph 1015.5mb 54f 53f
5:30 18 22 mph 1015.7mb 54f 53f
5:24 18 21 mph 1015.7mb 54f 53f
5:18 20 22 mph 1015.9mb 54f 53f
5:12 18 21 mph 1016mb 54f 53f
5:06 17 21 mph 1015.9mb 54f 53f
5:00 17 20 mph 1016mb 54f 53f
4:54 17 20 mph 1016.1mb 54f 53f
4:48 18 21 mph 1016mb 54f 53f
4:36 20 22 mph 1016.2mb 54f 53f
4:30 20 22 mph 1016.3mb 54f 53f
4:24 18 22 mph 1016.5mb 54f 53f
4:18 20 22 mph 1016.6mb 54f 53f
4:12 18 22 mph 1016.6mb 54f 52f
4:06 18 21 mph 1016.6mb 54f 52f
4:00 18 22 mph 1016.6mb 55f 52f
3:54 17 21 mph 1016.7mb 55f 52f
3:48 16 22 mph 1016.8mb 55f 52f
3:36 17 21 mph 1016.8mb 54f 52f
3:30 17 20 mph 1016.8mb 54f 52f
3:24 16 20 mph 1016.9mb 54f 53f
3:18 17 22 mph 1016.8mb 54f 53f
3:12 16 20 mph 1016.8mb 53f 53f
3:06 16 22 mph 1017mb 53f 53f
3:00 17 20 mph 1017mb 54f 52f
2:54 17 18 mph 1017mb 53f 52f
2:48 16 18 mph 1017.1mb 53f 52f
2:36 14 17 mph 1017.4mb 52f 53f
2:30 13 15 mph 1017.5mb 52f 53f
2:24 13 15 mph 1017.6mb 52f 52f
2:18 13 15 mph 1017.7mb 51f 52f
2:12 14 15 mph 1017.8mb 50f 52f
2:06 13 15 mph 1017.8mb 50f 52f
2:00 14 16 mph 1017.8mb 50f 51f
1:54 15 18 mph 1017.9mb 49f 51f
1:48 14 17 mph 1018mb 49f 51f
1:36 15 16 mph 1018mb 49f 51f
1:30 15 16 mph 1018mb 49f 52f
1:24 14 16 mph 1018.1mb 49f 52f
1:18 15 17 mph 1018.2mb 49f 52f
1:12 14 17 mph 1018.2mb 49f 52f
1:06 15 18 mph 1018.1mb 50f 52f
1:00 18 24 mph 1018.1mb 50f 51f
12:54 21 24 mph 1018.2mb 50f 52f
12:48 23 25 mph 1018.2mb 50f 52f
12:36 20 22 mph 1018.1mb 50f 53f
12:30 21 24 mph 1018.3mb 50f 53f
12:24 22 24 mph 1018.3mb 50f 53f
12:18 22 25 mph 1018.2mb 50f 52f
12:12 20 23 mph 1018.4mb 50f 52f
12:06 20 22 mph 1018.4mb 50f 52f
12:00 20 24 mph 1018.5mb 50f 52f
11:54 17 21 mph 1018.5mb 50f 52f
11:48 14 16 mph 1018.6mb 51f 52f
11:36 16 21 mph 1018.7mb 51f 52f
11:30 17 22 mph 1018.8mb 51f 52f
11:24 18 22 mph 1018.7mb 52f 52f
11:18 17 21 mph 1018.8mb 52f 52f
11:12 16 18 mph 1018.9mb 52f 52f
11:06 15 17 mph 1019mb 53f 52f
11:00 14 17 mph 1019mb 53f 52f
10:54 14 16 mph 1019.1mb 53f 52f
10:48 15 18 mph 1019.1mb 54f 52f
10:36 16 18 mph 1019.1mb 55f 51f